Погода в Липовке

Россия / Воронежская область     50°51′45″N   40°01′30″E
темп.,
°C
ветер,
м/с
пор.,
м/с
влажн.,
%
обл.,
%
осадки,
мм/ч
давл.,
гПа
погр.,
м
11 мая, вт
вт1100:00+11св61396100 0.9 1012792
03:00+8вюв31098100 5.8 1014551
06:00+7в499495 5.1 1016682
09:00+9в71072100 5.3 10181194
12:00+10в81274100 0.1 10191504
15:00+10в8147697 0.1 10201345
18:00+7вюв71586100 0.3 10231237
21:00+9в6117990 0.3 1024573
12 мая, ср
ср1200:00+7всв5148497 0.0 1023344
03:00+8всв61483100 0.0 1023338
06:00+9всв51379100 0.0 1022459
09:00+12в787199 0.1 10211008
12:00+14вюв576577 1.3 10191485
15:00+14юв597399 2.3 1018742
18:00+13юв597825 1.6 1018409
21:00+10вюв358883 1.7 101873
13 мая, чт
чт1300:00+11юв258889 0.0 101898
03:00+10вюв118656 0.0 101811
06:00+11в1183100 0.0 101819
09:00+16юв1267100 0.0 1017436
12:00+20ююз2255100 0.0 10171301
15:00+21св125130 0.0 10161652
18:00+21вюв12625 0.0 1016246
21:00+16всв1170100 0.0 101611
14 мая, пт
пт1400:00+14в2285100 0.0 101620
03:00+14в238494 0.0 101647
06:00+15вюв3684100 0.0 1016138
09:00+20юв51070100 0.0 1015525
12:00+24юв695715 0.0 10151259
15:00+26ююв68545 0.0 10141484
18:00+24юв5966100 0.0 1013321
21:00+19юв3979100 0.0 1013154
15 мая, сб
сб1500:00+18юв3385100 0.0 101240
03:00+16юв22853 0.0 101214
06:00+17ююв23860 0.0 101299
09:00+21юв567398 0.0 1012393
12:00+22юв5470100 0.2 1012818
15:00+20в347935 3.9 1012178
18:00
21:00+17юз33843 4.2 101239